Andalusia, AL

7:29 PM CDT on June 23, 2018 (GMT -0500)
Andalusia

Weather History for K79J - October, 2017

Change the Weather History Date:

Monday, October 23, 2017

  Actual Average (KCEW) Record (KCEW)
Temperature  
Mean Temperature 65 °F -  
Max Temperature 75 °F 76 °F 88 °F (1949)
Min Temperature 55 °F 52 °F 35 °F (1997)
Growing Degree Days 15 (Base 50)    
Moisture  
Dew Point 64 °F    
Average Humidity 79    
Maximum Humidity 91    
Minimum Humidity 45    
Precipitation  
Precipitation 0.79 in - - ()
Sea Level Pressure  
Sea Level Pressure 29.94 in    
Wind  
Wind Speed 8 mph (WNW)    
Max Wind Speed 18 mph    
Max Gust Speed 24 mph    
Visibility 8 miles    
Events Rain    
Averages and records for this station are not official NWS values.
T = Trace of Precipitation, MM = Missing Value Source: NWS Daily Summary

Daily Weather History Graph

Daily Weather History Graph

Search for Another Location

Airport or City:

Astronomy

Oct. 23, 2017 Rise Set
Actual Time 6:54 AM CDT 6:04 PM CDT
Civil Twilight 6:29 AM CDT 6:29 PM CDT
Nautical Twilight 6:01 AM CDT 6:57 PM CDT
Astronomical Twilight 5:33 AM CDT 7:26 PM CDT
Moon 10:14 AM CDT (10/23) 9:01 PM CDT (10/23)
Length of Visible Light 11h 59m
Length of Day
11h 10m
Waxing Crescent, 14% of the Moon is Illuminated
Oct 23
Waxing Crescent
Oct 27
First Quarter
Nov 4
Full
Nov 10
Last Quarter
Nov 18
New

Hourly Weather History & Observations

Time (CDT) Temp. Dew Point Humidity Pressure Visibility Wind Dir Wind Speed Gust Speed Precip Events Conditions
12:07 AM 72.0 °F 69.1 °F 91% 29.99 in 2.0 mi ESE 8.1 mph - 0.10 in Rain Heavy Rain
12:23 AM 72.0 °F 69.1 °F 91% 29.99 in 4.0 mi ESE 9.2 mph - 0.18 in Rain Heavy Rain
12:49 AM 72.0 °F 69.1 °F 91% 29.99 in 6.0 mi SE 5.8 mph - 0.24 in Rain Rain
12:56 AM 72.0 °F 69.1 °F 91% 29.98 in 5.0 mi SE 4.6 mph - 0.26 in Rain Rain
1:04 AM 73.0 °F 70.0 °F 90% 29.99 in 3.0 mi Variable 5.8 mph - 0.03 in Rain Heavy Rain
1:12 AM 73.0 °F 70.0 °F 90% 29.99 in 2.5 mi ESE 8.1 mph - 0.10 in Rain Heavy Rain
1:27 AM 73.0 °F 70.0 °F 90% 29.98 in 3.0 mi Variable 5.8 mph - 0.21 in Rain Rain
1:56 AM 73.0 °F 69.1 °F 87% 29.94 in 3.0 mi Variable 6.9 mph - 0.31 in Rain Heavy Rain
2:17 AM 73.0 °F 69.1 °F 87% 29.94 in 4.0 mi East 4.6 mph - 0.03 in Rain Rain
2:25 AM 73.0 °F 69.1 °F 87% 29.94 in 5.0 mi Calm Calm - 0.03 in Rain Light Rain
2:56 AM 73.0 °F 69.1 °F 87% 29.92 in 10.0 mi Variable 6.9 mph - 0.03 in Rain Light Rain
3:04 AM 73.0 °F 69.1 °F 87% 29.92 in 10.0 mi Variable 4.6 mph - 0.01 in Rain Light Rain
3:20 AM 73.0 °F 69.1 °F 87% 29.92 in 10.0 mi Variable 4.6 mph - 0.01 in   Overcast
3:48 AM 73.0 °F 69.1 °F 87% 29.90 in 10.0 mi SSE 3.5 mph - 0.01 in   Overcast
3:56 AM 73.0 °F 69.1 °F 87% 29.88 in 10.0 mi Variable 4.6 mph - 0.01 in   Overcast
4:03 AM 73.0 °F 69.1 °F 87% 29.90 in 10.0 mi Variable 4.6 mph - N/A   Overcast
4:21 AM 73.0 °F 69.1 °F 87% 29.90 in 10.0 mi Variable 3.5 mph - N/A   Overcast
4:47 AM 73.0 °F 70.0 °F 90% 29.90 in 10.0 mi Calm Calm - N/A   Overcast
4:56 AM 73.0 °F 70.0 °F 90% 29.88 in 10.0 mi Calm Calm - N/A   Overcast
5:26 AM 73.0 °F 70.0 °F 90% 29.89 in 10.0 mi Calm Calm - 0.01 in Rain Light Rain
5:37 AM 73.0 °F 70.0 °F 90% 29.90 in 1.8 mi West 8.1 mph - 0.12 in Rain Heavy Rain
5:48 AM 73.0 °F 70.0 °F 90% 29.90 in 2.5 mi West 6.9 mph - 0.18 in Rain Rain
5:56 AM 73.0 °F 69.1 °F 87% 29.89 in 4.0 mi West 8.1 mph - 0.18 in Rain Light Rain
6:16 AM 73.0 °F 69.1 °F 87% 29.91 in 10.0 mi West 8.1 mph - 0.00 in   Overcast
6:46 AM 72.0 °F 68.0 °F 87% 29.91 in 10.0 mi West 10.4 mph - 0.00 in   Overcast
6:56 AM 72.0 °F 68.0 °F 87% 29.90 in 10.0 mi West 9.2 mph - 0.00 in   Overcast
7:39 AM 72.0 °F 66.9 °F 84% 29.92 in 10.0 mi West 12.7 mph - N/A   Overcast
7:56 AM 72.0 °F 66.9 °F 84% 29.92 in 10.0 mi West 8.1 mph - N/A   Overcast
8:07 AM 72.0 °F 66.9 °F 84% 29.94 in 10.0 mi West 9.2 mph - N/A   Overcast
8:18 AM 72.0 °F 66.9 °F 84% 29.94 in 10.0 mi West 12.7 mph - N/A   Overcast
8:40 AM 73.0 °F 66.0 °F 79% 29.95 in 10.0 mi West 13.8 mph - N/A   Mostly Cloudy
8:51 AM 71.6 °F 64.4 °F 78% 29.96 in 10.0 mi West 15.0 mph - N/A   Mostly Cloudy
8:56 AM 72.0 °F 64.0 °F 76% 29.95 in 10.0 mi West 17.3 mph - N/A   Mostly Cloudy
9:04 AM 72.0 °F 64.0 °F 76% 29.96 in 10.0 mi WNW 13.8 mph - N/A   Scattered Clouds
9:13 AM 71.1 °F 63.0 °F 75% 29.96 in 10.0 mi West 16.1 mph 23.0 mph N/A   Mostly Cloudy
9:56 AM 71.1 °F 61.0 °F 70% 29.96 in 10.0 mi WNW 18.4 mph - N/A   Mostly Cloudy
10:08 AM 73.0 °F 61.0 °F 66% 29.97 in 10.0 mi WNW 13.8 mph 23.0 mph N/A   Scattered Clouds
10:17 AM 72.0 °F 60.1 °F 66% 29.97 in 10.0 mi West 13.8 mph - N/A   Mostly Cloudy
10:56 AM 71.1 °F 57.9 °F 63% 29.97 in 10.0 mi WNW 16.1 mph 24.2 mph N/A   Mostly Cloudy
11:06 AM 73.0 °F 57.9 °F 59% 29.97 in 10.0 mi NW 16.1 mph 21.9 mph N/A   Scattered Clouds
11:56 AM 73.9 °F 57.0 °F 55% 29.95 in 10.0 mi NW 13.8 mph - N/A   Clear
12:56 PM 75.0 °F 55.0 °F 50% 29.94 in 10.0 mi West 12.7 mph - N/A   Clear
1:56 PM 75.9 °F 54.0 °F 46% 29.93 in 10.0 mi WNW 13.8 mph 20.7 mph N/A   Clear
2:56 PM 75.9 °F 53.1 °F 45% 29.93 in 10.0 mi NNW 13.8 mph - N/A   Clear
3:56 PM 75.0 °F 54.0 °F 48% 29.93 in 10.0 mi NNW 12.7 mph - N/A   Partly Cloudy
4:56 PM 72.0 °F 52.0 °F 49% 29.94 in 10.0 mi NNW 15.0 mph - N/A   Partly Cloudy
5:56 PM 66.9 °F 53.1 °F 61% 29.95 in 10.0 mi NW 8.1 mph - N/A   Clear
6:56 PM 64.0 °F 53.1 °F 67% 29.97 in 10.0 mi NNW 6.9 mph - N/A   Clear
7:56 PM 62.1 °F 53.1 °F 72% 29.97 in 10.0 mi Calm Calm - N/A   Clear
8:56 PM 59.0 °F 54.0 °F 83% 29.97 in 10.0 mi Calm Calm - N/A   Clear
9:56 PM 57.9 °F 53.1 °F 84% 30.00 in 10.0 mi Calm Calm - N/A   Clear
10:56 PM 55.9 °F 53.1 °F 90% 30.01 in 10.0 mi Calm Calm - N/A   Clear
11:56 PM 57.0 °F 52.0 °F 83% 30.01 in 10.0 mi Calm Calm - N/A   Clear